Regional Weather Roundup
Issued by NWS Upton, NY

Current Version | Previous Version | Text Only | Print | Product List | Glossary On
Versions: 1 2 3 4 5 6 7 8 9 10 11 12 13 14 15 16 17 18 19 20 21 22 23 24 25 26 27 28 29 30 31 32 33 34 35 36 37 38 39 40 41 42 43 44 45 46 47 48 49 50
000
ASUS41 KOKX 270207
RWROKX

REGIONAL WEATHER ROUNDUP
NATIONAL WEATHER SERVICE NEW YORK NY
1000 PM EDT THU MAR 26 2015

NOTE: "FAIR" INDICATES FEW OR NO CLOUDS BELOW 12,000 FEET WITH NO
SIGNIFICANT WEATHER AND/OR OBSTRUCTIONS TO VISIBILITY.

NYZ071-072-176-178-NJZ106-104-270300-
NEW YORK CITY METRO AREA


CITY           SKY/WX    TMP DP  RH WIND       PRES   REMARKS
CENTRAL PARK   LGT RAIN  52  49  89 VRB6      29.69R FOG
LAGUARDIA APRT LGT RAIN  52  48  86 N15       29.64R
KENNEDY INTL   FOG       49  48  97 SE3       29.63R VSB 1/4
NEWARK/LIBERTY LGT RAIN  52  48  87 N14       29.66R FOG
BRNX BOT. GARD   N/A     46  45  93 NW7       29.67R
TETERBORO      RAIN      52  48  87 N9        29.65R FOG
$$

NYZ177-179-078>081-270300-
LONG ISLAND NEW YORK

CITY           SKY/WX    TMP DP  RH WIND       PRES   REMARKS
FARMINGDALE    FOG       52  52 100 SW12      29.63S VSB 1/4
ISLIP          FOG       53  51  93 SW18G29   29.62S VSB 1/8
SHIRLEY        FOG       54  53  97 SW16G23   29.63F VSB 3/4
WESTHAMPTON    FOG       54  53  97 SW13      29.64S VSB 3/4
MONTAUK POINT    N/A     51  50  96 S12G21    29.63S
$$

NYZ052-065-067-270300-
HUDSON VALLEY

CITY           SKY/WX    TMP DP  RH WIND       PRES   REMARKS
WHITE PLAINS   LGT RAIN  47  44  90 NW15      29.65R
NEWBURGH       LGT RAIN  43  41  93 NE12      29.71R FOG
MONTGOMERY     RAIN      42  40  92 VRB6      29.71R FOG
POUGHKEEPSIE   LGT RAIN  42  39  89 N7G17     29.70R
ALBANY         LGT RAIN  38  36  92 VRB3      29.76S FOG
$$

NJZ001-105-106-008-010-013-015-019>022-104-270300-
NEW JERSEY

CITY           SKY/WX    TMP DP  RH WIND       PRES   REMARKS
NEWARK/LIBERTY LGT RAIN  52  48  87 N14       29.66R FOG
TETERBORO      RAIN      52  48  87 N9        29.65R FOG
CALDWELL       RAIN      50  46  86 NE5       29.66R FOG
MORRISTOWN     CLOUDY    50  48  93 N10       29.66R FOG
SOMERVILLE     RAIN      51  48  89 N9        29.66R FOG
SUSSEX         RAIN      44  41  89 NE7       29.70F FOG
ANDOVER          N/A     43  42  97 NW6       29.70R
TRENTON        RAIN      54  51  90 NW7       29.66R FOG
MILLVILLE      CLOUDY    54  54 100 NW9       29.66R
ATLANTIC CITY  CLOUDY    53  52  96 S8        29.63S
WRIGHTSTOWN    CLOUDY    60  60  99 NW16G23   29.62R
TOMS RIVER     CLOUDY    59  57  94 SW5       29.61S
BELMAR         CLOUDY    61  55  82 W9        29.62R
$$

PAZ047>061-062-071-270300-
EASTERN PENNSYLVANIA

CITY           SKY/WX    TMP DP  RH WIND       PRES   REMARKS
PHILADELPHIA   CLOUDY    56  52  86 NW12      29.67S
ALLENTOWN      LGT RAIN  47  43  86 NW9       29.70R
SCRANTON       CLOUDY    41  37  86 N7        29.73R
$$

CTZ002-004>006-009-010-012-RIZ004-006-007-MAZ004-011-015-270300-
SOUTHERN NEW ENGLAND
 IN CT

CITY           SKY/WX    TMP DP  RH WIND       PRES   REMARKS
BRADLEY INTL   LGT RAIN  43  42  97 N7        29.68R FOG
HARTFORD       LGT RAIN  44  42  93 VRB7      29.68S FOG
DANBURY        LGT RAIN  44  40  85 N6        29.69R
WTRBRY/OXFORD  CLOUDY    45  39  81 N10       29.68R
BRIDGEPORT     CLOUDY    52  51  97 NW13      29.63F FOG
MERIDEN        LGT RAIN  48  45  89 N10       29.66S FOG
NEW HAVEN      CLOUDY    53  52  96 NW5       29.63S FOG
CHESTER        LGT RAIN  54  54 100 SW8G16    29.65R VSB 1
GROTON         CLOUDY    54  54 100 W13       29.64S FOG
WILLIMANTIC    CLOUDY    49  46  90 N13       29.66R

 IN RI

CITY           SKY/WX    TMP DP  RH WIND       PRES   REMARKS
PROVIDENCE     CLOUDY    57  55  93 SW18G25   29.64R
BLOCK ISLAND   CLOUDY    48  45  87 S17G26    29.61F
WESTERLY       FOG       52  52 100 W10G18    29.65S VSB 3/4

 IN MA

CITY           SKY/WX    TMP DP  RH WIND       PRES   REMARKS
BOSTON         LGT RAIN  46  45  96 N10       29.65S FOG
WORCESTER      CLOUDY    42  40  92 N12       29.64F
WESTFIELD      LGT RAIN  42  40  92 E3        29.68S FOG
PROVINCETOWN   CLOUDY    50  45  81 SW16      29.63F
NANTUCKET      LGT RAIN  46  44  93 S21       29.68F VSB 3/4
$$

ANZ330-335-338-340-345-350-353-355-270300-
COASTAL MARINE OBSERVATIONS


STATION/POSITION TIME  SKY/WX   TEMP    WIND        PRES    VSBY  WAVE
                                AIR SEA DIR/SP/G                  HT/PER
                 (UTC)          (F)     (DEG/KT/KT) (MB)    (MI)  (FT/S)
NY HARB ENTRANCE 0150            46 38  220/ 17/ 19 1002.5          7/ 8
4S FIRE IS       0103               36                N/A           8/10
20S FIRE ISLAND  0050               38              1003.1          8/ 9
23SW MTP         0150                                 N/A           8/ 9
HUDSON CANYON    NOT AVBL
EXECUTION ROCKS  NOT AVBL
WESTERN LI SOUND NOT AVBL
CENTRAL LI SOUND NOT AVBL
EASTERN LI SOUND NOT AVBL
ROBBINS REEF     0100            54     350/  6/  8 1001.8
$$


>>>>>>>>>>>>>>>>>>>>>>>>>>>> KEY <<<<<<<<<<<<<<<<<<<<<<<<<<<
>                                                          <
>     SKY/WX - SKY CONDITION/PRESENT WEATHER               <
>     TMP    - TEMPERATURE IN FAHRENHEIT                   <
>     DP     - DEWPOINT IN FAHRENHEIT                      <
>     RH     - RELATIVE HUMIDITY IN PERCENT                <
>     WIND   - DIRECTION AND SPEED IN MPH                  <
>     PRES   - MEAN SEA LEVEL PRESSURE IN INCHES OF HG     <
>     WCI    - WIND CHILL INDEX                            <
>     VSB    - VISIBILITY IN MILES                         <
>     HX     - HEAT INDEX                                  <
>     TC     - TEMPERATURE IN CELSIUS                      <
>     VRB    - VARIABLE WIND DIRECTION                     <
>                                                          <
>>>>>>>>>>>>>>>>>>>>>>>>>>>> KEY <<<<<<<<<<<<<<<<<<<<<<<<<<<





USA.gov is the U.S. government's official web portal to all federal, state and local government web resources and services.